When you browse on this site, cookies collect data to enhance your experience and personalize the content and advertising you see.
Visit our Privacy Policy to learn more. By continuing to use the site, you agree to this use of cookies and data.
  • In Portugal
  • List of Countries
  • For 7 days
  • Water Temperature
  • Satellite Maps
  • Weather Map
  • Weather Widgets
  • user-avatar
    Login

    Hourly Weather Yenakievo

    Today, 13 December, Thursday

    Time Temperature Precipitation Wind Pressure Humidity
    00:00 -1°C° 0 mm 4 mps 739 mmHg 85%
    01:00 -2°C° 0 mm 4 mps 740 mmHg 86%
    02:00 -2°C° 0 mm 4 mps 740 mmHg 86%
    03:00 -1°C° 0 mm 3 mps 741 mmHg 89%
    04:00 -1°C° 0 mm 3 mps 741 mmHg 89%
    05:00 -1°C° 0 mm 3 mps 741 mmHg 88%
    06:00 -2°C° 0 mm 4 mps 742 mmHg 88%
    07:00 -1°C° 0 mm 3 mps 742 mmHg 88%
    08:00 -1°C° 0 mm 3 mps 743 mmHg 88%
    09:00 -1°C° 0 mm 3 mps 743 mmHg 88%
    10:00 -1°C° 0 mm 3 mps 743 mmHg 85%
    11:00 0°C° 0 mm 3 mps 744 mmHg 82%
    12:00 -1°C° 0 mm 4 mps 744 mmHg 80%
    13:00 0°C° 0 mm 3 mps 745 mmHg 79%
    14:00 +1°C° 0 mm 3 mps 745 mmHg 79%
    15:00 +1°C° 0 mm 3 mps 745 mmHg 79%
    16:00 +1°C° 0 mm 2 mps 745 mmHg 80%
    17:00 +1°C° 0 mm 2 mps 746 mmHg 82%
    18:00 +1°C° 0 mm 2 mps 746 mmHg 83%
    19:00 +1°C° 0 mm 2 mps 746 mmHg 83%
    20:00 +2°C° 0 mm 1 mps 747 mmHg 83%
    21:00 +2°C° 0 mm 1 mps 747 mmHg 83%
    22:00 +1°C° 0 mm 1 mps 747 mmHg 84%
    23:00 +1°C° 0 mm 1 mps 747 mmHg 85%

    Tomorrow, 14 December, Friday

    Time Temperature Precipitation Wind Pressure Humidity
    00:00 0°C° 0 mm 1 mps 747 mmHg 85%
    01:00 -2°C° 0 mm 2 mps 747 mmHg 86%
    02:00 -2°C° 0 mm 2 mps 747 mmHg 86%
    03:00 -2°C° 0 mm 2 mps 747 mmHg 86%
    04:00 -2°C° 0 mm 2 mps 748 mmHg 87%
    05:00 -2°C° 0 mm 2 mps 748 mmHg 88%
    06:00 -2°C° 0 mm 2 mps 748 mmHg 88%
    07:00 -2°C° 0 mm 2 mps 748 mmHg 89%
    08:00 -2°C° 0 mm 2 mps 748 mmHg 89%
    09:00 +1°C° 0 mm 1 mps 749 mmHg 90%
    10:00 +1°C° 0 mm 1 mps 749 mmHg 87%
    11:00 +2°C° 0 mm 1 mps 749 mmHg 85%
    12:00 +3°C° 0 mm 1 mps 749 mmHg 82%
    13:00 +3°C° 0 mm 1 mps 749 mmHg 83%
    14:00 +3°C° 0 mm 1 mps 749 mmHg 83%
    15:00 +2°C° 0 mm 0 mps 749 mmHg 83%
    16:00 +1°C° 0 mm 0 mps 750 mmHg 85%
    17:00 +1°C° 0 mm 0 mps 750 mmHg 86%
    18:00 0°C° 0 mm 0 mps 750 mmHg 88%
    19:00 0°C° 0 mm 0 mps 750 mmHg 88%
    20:00 0°C° 0 mm 0 mps 750 mmHg 88%
    21:00 -1°C° 0 mm 0 mps 750 mmHg 88%
    22:00 -1°C° 0 mm 0 mps 751 mmHg 88%
    23:00 0°C° 0 mm 1 mps 751 mmHg 88%

    Day after tomorrow, 15 December, Saturday

    Time Temperature Precipitation Wind Pressure Humidity
    00:00 0°C° 0 mm 1 mps 751 mmHg 88%
    01:00 0°C° 0 mm 1 mps 751 mmHg 88%
    02:00 0°C° 0 mm 1 mps 751 mmHg 88%
    03:00 0°C° 0 mm 1 mps 751 mmHg 88%
    04:00 0°C° 0 mm 1 mps 751 mmHg 88%
    05:00 0°C° 0 mm 1 mps 752 mmHg 88%
    06:00 -1°C° 0 mm 0 mps 752 mmHg 89%
    07:00 -1°C° 0 mm 0 mps 752 mmHg 88%
    08:00 -1°C° 0 mm 0 mps 752 mmHg 88%
    09:00 -1°C° 0 mm 0 mps 753 mmHg 88%
    10:00 0°C° 0 mm 0 mps 753 mmHg 84%
    11:00 +1°C° 0 mm 0 mps 753 mmHg 80%
    12:00 +2°C° 0 mm 0 mps 753 mmHg 76%
    13:00 +2°C° 0 mm 0 mps 753 mmHg 77%
    14:00 +3°C° 0 mm 1 mps 753 mmHg 78%
    15:00 +3°C° 0 mm 1 mps 753 mmHg 78%
    16:00 +2°C° 0 mm 1 mps 754 mmHg 82%
    17:00 +1°C° 0 mm 1 mps 754 mmHg 85%
    18:00 -2°C° 0 mm 2 mps 754 mmHg 88%
    19:00 -2°C° 0 mm 2 mps 754 mmHg 89%
    20:00 -3°C° 0 mm 2 mps 754 mmHg 90%
    21:00 -3°C° 0 mm 2 mps 754 mmHg 91%
    22:00 -3°C° 0 mm 2 mps 755 mmHg 91%
    23:00 -4°C° 0 mm 2 mps 755 mmHg 90%

    16 December, Sunday

    Time Temperature Precipitation Wind Pressure Humidity
    00:00 -4°C° 0 mm 2 mps 755 mmHg 90%
    01:00 -4°C° 0 mm 2 mps 755 mmHg 89%
    02:00 -5°C° 0 mm 3 mps 755 mmHg 88%
    03:00 -5°C° 0 mm 3 mps 755 mmHg 87%
    04:00 -5°C° 0 mm 3 mps 755 mmHg 87%
    05:00 -5°C° 0 mm 3 mps 755 mmHg 87%
    06:00 -5°C° 0 mm 3 mps 755 mmHg 87%
    07:00 -5°C° 0 mm 3 mps 755 mmHg 87%
    08:00 -5°C° 0 mm 4 mps 755 mmHg 86%
    09:00 -5°C° 0 mm 4 mps 755 mmHg 86%
    10:00 -5°C° 0 mm 4 mps 755 mmHg 83%
    11:00 -4°C° 0 mm 4 mps 755 mmHg 80%
    12:00 -5°C° 0 mm 5 mps 755 mmHg 78%
    13:00 -5°C° 0 mm 5 mps 755 mmHg 77%
    14:00 -4°C° 0 mm 5 mps 754 mmHg 77%
    15:00 -4°C° 0 mm 5 mps 754 mmHg 76%
    16:00 -5°C° 0 mm 5 mps 754 mmHg 79%
    17:00 -5°C° 0 mm 5 mps 754 mmHg 81%
    18:00 -6°C° 0 mm 5 mps 754 mmHg 83%
    19:00 -6°C° 0 mm 5 mps 754 mmHg 83%
    20:00 -6°C° 0 mm 5 mps 754 mmHg 84%
    21:00 -6°C° 0 mm 6 mps 754 mmHg 84%
    22:00 -6°C° 0 mm 6 mps 754 mmHg 83%
    23:00 -8°C° 0 mm 6 mps 754 mmHg 82%

    17 December, Monday

    Time Temperature Precipitation Wind Pressure Humidity
    00:00 -8°C° 0 mm 6 mps 753 mmHg 81%
    01:00 -8°C° 0 mm 6 mps 753 mmHg 79%
    02:00 -8°C° 0 mm 6 mps 753 mmHg 78%
    03:00 -8°C° 0 mm 6 mps 753 mmHg 76%
    04:00 -8°C° 0 mm 6 mps 753 mmHg 74%
    05:00 -9°C° 0 mm 6 mps 753 mmHg 72%
    06:00 -9°C° 0 mm 6 mps 752 mmHg 69%
    07:00 -9°C° 0 mm 6 mps 752 mmHg 67%
    08:00 -9°C° 0 mm 6 mps 752 mmHg 65%
    09:00 -9°C° 0 mm 6 mps 753 mmHg 63%
    10:00 -9°C° 0 mm 6 mps 752 mmHg 60%
    11:00 -8°C° 0 mm 6 mps 752 mmHg 58%
    12:00 -6°C° 0 mm 6 mps 752 mmHg 55%
    13:00 -6°C° 0 mm 6 mps 752 mmHg 55%
    14:00 -6°C° 0 mm 6 mps 752 mmHg 55%
    15:00 -6°C° 0 mm 6 mps 752 mmHg 55%
    16:00 -8°C° 0 mm 6 mps 752 mmHg 57%
    17:00 -8°C° 0 mm 6 mps 752 mmHg 59%
    18:00 -9°C° 0 mm 6 mps 752 mmHg 61%
    19:00 -9°C° 0 mm 6 mps 752 mmHg 64%
    20:00 -9°C° 0 mm 6 mps 752 mmHg 66%
    21:00 -10°C° 0 mm 6 mps 752 mmHg 69%
    22:00 -10°C° 0 mm 6 mps 752 mmHg 71%
    23:00 -10°C° 0 mm 6 mps 752 mmHg 73%

    18 December, Tuesday

    Time Temperature Precipitation Wind Pressure Humidity
    00:00 -10°C° 0 mm 6 mps 752 mmHg 75%
    01:00 -10°C° 0 mm 6 mps 752 mmHg 76%
    02:00 -11°C° 0 mm 6 mps 752 mmHg 77%
    03:00 -11°C° 0 mm 6 mps 752 mmHg 79%
    04:00 -11°C° 0 mm 6 mps 752 mmHg 80%
    05:00 -11°C° 0 mm 6 mps 752 mmHg 81%
    06:00 -11°C° 0 mm 6 mps 752 mmHg 82%
    07:00 -11°C° 0 mm 6 mps 752 mmHg 81%
    08:00 -11°C° 0 mm 6 mps 752 mmHg 81%
    09:00 -11°C° 0 mm 6 mps 752 mmHg 80%
    10:00 -10°C° 0 mm 6 mps 752 mmHg 78%
    11:00 -10°C° 0 mm 6 mps 752 mmHg 76%
    12:00 -9°C° 0 mm 6 mps 752 mmHg 74%
    13:00 -9°C° 0 mm 6 mps 752 mmHg 74%
    14:00 -9°C° 0 mm 6 mps 752 mmHg 73%
    15:00 -8°C° 0 mm 6 mps 752 mmHg 73%
    16:00 -8°C° 0 mm 6 mps 752 mmHg 75%
    17:00 -9°C° 0 mm 6 mps 752 mmHg 76%
    18:00 -9°C° 0 mm 6 mps 752 mmHg 77%
    19:00 -8°C° 0 mm 6 mps 752 mmHg 78%
    20:00 -8°C° 0 mm 6 mps 752 mmHg 79%
    21:00 -8°C° 0 mm 6 mps 752 mmHg 80%
    22:00 -8°C° 0 mm 6 mps 752 mmHg 81%
    23:00 -8°C° 0 mm 6 mps 752 mmHg 81%
    Show more